Flag for Canada Weather past 2 weeks in St. John's, Newfoundland and Labrador, Canada

Now
32 °F

Light rain. Ice fog.


Feels Like: 23 °F
Forecast: 28 / 36 °F
Wind: 12 mph from Southeast

Location: St. John's

Current Time: Jan 30, 2015 at 3:21:38 PM

Latest Report: Jan 30, 2015 at 2:30 PM


Visibility: 1 mi

Pressure: 29.58 "Hg

Humidity: 100%

Dew point: 32 °F

Location of St. John'sLocation

Historic Weather in St. John's — Graph

°F

St. John's temperature yesterday

Maximum temperature yesterday: 41 °F (at 2:30 AM)
Minimum temperature yesterday: 25 °F (at 11:30 PM)
Average temperature yesterday: 35 °F

Past Weeks' High & Low Weather Summary

 TemperatureHumidityPressure
High50 °F (Jan 28, 9:30 AM)100% (Jan 15, 8:30 PM)30.58 "Hg (Jan 15, 8:30 PM)
Low10 °F (Jan 18, 6:30 AM)59% (Jan 26, 1:30 PM)29.02 "Hg (Jan 25, 11:30 AM)
Average29 °F88%29.85 "Hg
* Reported Jan 15 1:30 PM — Jan 30 1:30 PM, St. John's, Weather by CustomWeather, © 2014

Note: Actual official high and low records may vary slightly from our data, if they occured in-between our weather recording intervals... More about our weather records

Advertising

St. John's weather history for previous 24 hours

 ConditionsComfort  
Time TempWeatherWind HumidityBarometerVisibility
1:30 PM
Jan 30
32 °FLight freezing rain. Ice fog.12 mph100%29.63 "Hg0 mi
1:18 PM32 °FLight freezing rain. Ice fog.13 mph100%29.63 "Hg0 mi
12:30 PM32 °FLight freezing rain. Ice fog.17 mph93%29.68 "Hg1 mi
11:30 AM30 °FLight freezing rain. Ice fog.22 mph100%29.78 "Hg1 mi
10:30 AM30 °FLight freezing rain. Ice fog.29 mph100%29.83 "Hg1 mi
9:30 AM30 °FLight freezing rain. Ice fog.24 mph100%29.90 "Hg1 mi
8:30 AM28 °FChilly.22 mph100%29.96 "Hg1 mi
8:20 AM28 °FLight freezing rain. Ice fog.23 mph100%29.96 "Hg1 mi
7:30 AM28 °FLight freezing rain. Ice fog.21 mph100%30.00 "Hg1 mi
6:30 AM28 °FSleet. Low clouds.16 mph93%30.04 "Hg8 mi
6:15 AM27 °FSleet. Low clouds.20 mph100%30.04 "Hg5 mi
5:30 AM27 °FSleet. Low clouds.21 mph100%30.03 "Hg5 mi
5:24 AM27 °FSleet. Low clouds.22 mph100%30.04 "Hg8 mi
4:30 AM27 °FLight snow. Low clouds.21 mph93%30.05 "Hg12 mi
3:30 AM25 °FLight snow. Low clouds.16 mph100%30.10 "Hg15 mi
2:30 AM25 °FLight snow. Low clouds.13 mph100%30.12 "Hg15 mi
1:30 AM25 °FLight snow. Low clouds.14 mph100%30.15 "Hg12 mi
12:30 AM25 °FLight snow. Low clouds.15 mph100%30.16 "Hg4 mi
11:30 PM
Jan 29
25 °FLight snow. Low clouds.15 mph100%30.18 "Hg8 mi
10:30 PM27 °FLight snow. Low clouds.15 mph93%30.17 "Hg12 mi
9:30 PM27 °FLow clouds.16 mph100%30.16 "Hg15 mi
8:30 PM30 °FLow clouds.15 mph93%30.16 "Hg15 mi
7:30 PM32 °FMostly cloudy.10 mph93%30.13 "Hg15 mi
6:30 PM32 °FPassing clouds.3 mph93%30.11 "Hg15 mi
5:30 PM32 °FPartly cloudy.9 mph93%30.09 "Hg15 mi
4:30 PM34 °FPartly cloudy.8 mph93%30.06 "Hg15 mi
3:30 PM36 °FPartly sunny.9 mph87%30.04 "Hg15 mi
Weather by CustomWeather, © 2014

See weather overviewHow to use our weather pages